Weather History for Stevensville, MD

Change the Weather History Date:

Thursday, April 25, 2013

  Actual Average (KESN) Record (KESN)
Temperature  
Mean Temperature 55 °F -  
Max Temperature 64 °F 68 °F 92 °F (1960)
Min Temperature 46 °F 46 °F 30 °F (1956)
Degree Days  
Heating Degree Days 10    
Growing Degree Days 5 (Base 50)    
Moisture  
Dew Point 36 °F    
Average Humidity 50    
Maximum Humidity 76    
Minimum Humidity 30    
Precipitation  
Precipitation 0.00 in - - ()
Sea Level Pressure  
Sea Level Pressure 30.20 in    
Wind  
Wind Speed 10 mph (NNW)    
Max Wind Speed 24 mph    
Max Gust Speed 36 mph    
Visibility 10 miles    
Events Rain    
Averages and records for this station are not official NWS values.
T = Trace of Precipitation, MM = Missing Value Source: NWS Daily Summary

Daily Weather History Graph

Daily Weather History Graph

Search for Another Location

Airport:

Trip Planner

Search our weather history database for the weather conditions in past years. The results will help you decide how hot, cold, wet, or windy it might be!

Date:

Astronomy

Apr. 25, 2013 Rise Set
Actual Time 6:14 AM EDT 7:52 PM EDT
Civil Twilight 5:46 AM EDT 8:20 PM EDT
Nautical Twilight 5:12 AM EDT 8:55 PM EDT
Astronomical Twilight 4:35 AM EDT 9:31 PM EDT
Moon 8:02 PM EDT (4/25) 5:56 AM EDT (4/25)
Length of Visible Light 14h 34m
Length of Day
13h 37m
Full, 100% of the Moon is Illuminated
Apr 25
Full
Apr 25
Full
May 2
Last Quarter
May 9
New
May 18
First Quarter

Hourly Weather History & Observations

Time (EDT) Temp. Windchill Dew Point Humidity Pressure Visibility Wind Dir Wind Speed Gust Speed Precip Events Conditions
12:03 AM 64.4 °F - 53.6 °F 68% 29.92 in 10.0 mi Calm Calm - N/A   Clear
12:23 AM 64.4 °F - 53.6 °F 68% 29.95 in 10.0 mi WNW 20.7 mph 28.8 mph N/A   Mostly Cloudy
12:43 AM 62.6 °F - 51.8 °F 68% 29.97 in 10.0 mi NW 13.8 mph 23.0 mph N/A   Mostly Cloudy
1:03 AM 60.8 °F - 50.0 °F 68% 29.99 in 10.0 mi NW 24.2 mph 31.1 mph N/A   Mostly Cloudy
1:23 AM 60.8 °F - 44.6 °F 55% 30.00 in 10.0 mi WNW 19.6 mph 35.7 mph N/A   Mostly Cloudy
1:43 AM 57.2 °F - 44.6 °F 63% 30.03 in 10.0 mi NW 16.1 mph 26.5 mph N/A   Overcast
2:03 AM 57.2 °F - 41.0 °F 55% 30.03 in 10.0 mi NW 15.0 mph 29.9 mph N/A   Overcast
2:23 AM 55.4 °F - 41.0 °F 58% 30.05 in 10.0 mi NW 17.3 mph 23.0 mph N/A   Overcast
3:03 AM 53.6 °F - 39.2 °F 58% 30.07 in 10.0 mi NW 15.0 mph 24.2 mph N/A   Overcast
3:23 AM 50.0 °F - 42.8 °F 76% 30.09 in 10.0 mi NW 11.5 mph 26.5 mph N/A Rain Light Rain
3:43 AM 50.0 °F - 42.8 °F 76% 30.09 in 10.0 mi NW 10.4 mph - N/A   Overcast
4:03 AM 51.8 °F - 39.2 °F 62% 30.11 in 10.0 mi NW 11.5 mph 18.4 mph N/A   Overcast
4:23 AM 51.8 °F - 37.4 °F 58% 30.12 in 10.0 mi NNW 15.0 mph 29.9 mph N/A   Mostly Cloudy
4:43 AM 50.0 °F - 37.4 °F 62% 30.14 in 10.0 mi NW 20.7 mph 27.6 mph N/A Rain Light Rain
5:03 AM 50.0 °F - 35.6 °F 58% 30.14 in 10.0 mi NW 16.1 mph 24.2 mph N/A   Mostly Cloudy
5:23 AM 50.0 °F - 33.8 °F 54% 30.16 in 10.0 mi NW 19.6 mph 25.3 mph N/A   Scattered Clouds
5:43 AM 50.0 °F - 33.8 °F 54% 30.18 in 10.0 mi NW 16.1 mph 23.0 mph N/A   Clear
6:04 AM 48.2 °F - 32.0 °F 54% 30.20 in 10.0 mi NW 13.8 mph 21.9 mph N/A   Clear
6:24 AM 46.4 °F 39.8 °F 32.0 °F 57% 30.22 in 10.0 mi NW 16.1 mph 25.3 mph N/A   Scattered Clouds
6:44 AM 46.4 °F 39.8 °F 32.0 °F 57% 30.23 in 10.0 mi NNW 16.1 mph 23.0 mph N/A   Clear
7:04 AM 46.4 °F 40.4 °F 33.8 °F 62% 30.23 in 10.0 mi NNW 13.8 mph 20.7 mph N/A   Clear
7:24 AM 46.4 °F 40.4 °F 32.0 °F 57% 30.24 in 10.0 mi NNW 13.8 mph 20.7 mph N/A   Clear
7:44 AM 48.2 °F - 32.0 °F 54% 30.25 in 10.0 mi NNW 10.4 mph 21.9 mph N/A   Clear
8:04 AM 48.2 °F - 32.0 °F 54% 30.25 in 10.0 mi NNW 11.5 mph 19.6 mph N/A   Clear
8:24 AM 48.2 °F - 32.0 °F 54% 30.26 in 10.0 mi NNW 10.4 mph 17.3 mph N/A   Clear
8:44 AM 50.0 °F - 32.0 °F 50% 30.27 in 10.0 mi North 11.5 mph 17.3 mph N/A   Clear
9:04 AM 48.2 °F - 32.0 °F 54% 30.27 in 10.0 mi North 10.4 mph - N/A   Clear
9:24 AM 50.0 °F - 32.0 °F 50% 30.27 in 10.0 mi NNW 10.4 mph 18.4 mph N/A   Clear
9:44 AM 50.0 °F - 32.0 °F 50% 30.27 in 10.0 mi North 6.9 mph - N/A   Clear
10:04 AM 50.0 °F - 32.0 °F 50% 30.28 in 10.0 mi NNW 8.1 mph - N/A   Clear
10:44 AM 51.8 °F - 32.0 °F 47% 30.28 in 10.0 mi NNW 9.2 mph - N/A   Clear
11:04 AM 51.8 °F - 32.0 °F 47% 30.28 in 10.0 mi NNW 9.2 mph - N/A   Clear
11:24 AM 51.8 °F - 32.0 °F 47% 30.28 in 10.0 mi North 8.1 mph - N/A   Clear
11:44 AM 53.6 °F - 32.0 °F 44% 30.28 in 10.0 mi North 9.2 mph - N/A   Clear
12:04 PM 53.6 °F - 32.0 °F 44% 30.27 in 10.0 mi North 8.1 mph - N/A   Clear
12:24 PM 55.4 °F - 32.0 °F 41% 30.26 in 10.0 mi NNW 10.4 mph - N/A   Clear
12:44 PM 53.6 °F - 32.0 °F 44% 30.26 in 10.0 mi NNW 10.4 mph - N/A   Clear
1:04 PM 55.4 °F - 32.0 °F 41% 30.26 in 10.0 mi North 9.2 mph - N/A   Clear
1:24 PM 55.4 °F - 32.0 °F 41% 30.25 in 10.0 mi North 9.2 mph - N/A   Clear
1:44 PM 57.2 °F - 30.2 °F 36% 30.25 in 10.0 mi North 6.9 mph - N/A   Clear
2:04 PM 57.2 °F - 32.0 °F 38% 30.24 in 10.0 mi North 4.6 mph - N/A   Clear
2:24 PM 59.0 °F - 32.0 °F 36% 30.24 in 10.0 mi North 4.6 mph - N/A   Clear
2:45 PM 59.0 °F - 32.0 °F 36% 30.23 in 10.0 mi North 4.6 mph - N/A   Clear
3:05 PM 60.8 °F - 32.0 °F 34% 30.23 in 10.0 mi NNE 4.6 mph - N/A   Clear
3:25 PM 59.0 °F - 32.0 °F 36% 30.23 in 10.0 mi ENE 4.6 mph - N/A   Clear
3:45 PM 60.8 °F - 32.0 °F 34% 30.23 in 10.0 mi NE 4.6 mph - N/A   Clear
4:05 PM 60.8 °F - 30.2 °F 31% 30.22 in 10.0 mi SSE 3.5 mph - N/A   Clear
4:25 PM 60.8 °F - 32.0 °F 34% 30.22 in 10.0 mi Calm Calm - N/A   Clear
4:45 PM 62.6 °F - 30.2 °F 30% 30.21 in 10.0 mi SE 3.5 mph - N/A   Clear
5:05 PM 60.8 °F - 32.0 °F 34% 30.22 in 10.0 mi SSE 6.9 mph - N/A   Clear
5:25 PM 60.8 °F - 32.0 °F 34% 30.22 in 10.0 mi SSE 6.9 mph - N/A   Clear
5:45 PM 60.8 °F - 30.2 °F 31% 30.22 in 10.0 mi SSE 8.1 mph - N/A   Clear
6:05 PM 60.8 °F - 30.2 °F 31% 30.22 in 10.0 mi South 6.9 mph - N/A   Clear
6:25 PM 60.8 °F - 32.0 °F 34% 30.22 in 10.0 mi SSE 5.8 mph - N/A   Clear
6:45 PM 60.8 °F - 32.0 °F 34% 30.22 in 10.0 mi South 4.6 mph - N/A   Clear
7:05 PM 59.0 °F - 32.0 °F 36% 30.23 in 10.0 mi South 3.5 mph - N/A   Clear
7:45 PM 59.0 °F - 33.8 °F 39% 30.24 in 10.0 mi South 3.5 mph - N/A   Clear
8:05 PM 55.4 °F - 33.8 °F 44% 30.24 in 10.0 mi Calm Calm - N/A   Clear
8:25 PM 55.4 °F - 35.6 °F 47% 30.25 in 10.0 mi Calm Calm - N/A   Clear
8:45 PM 55.4 °F - 35.6 °F 47% 30.25 in 10.0 mi Calm Calm - N/A   Clear
9:05 PM 53.6 °F - 37.4 °F 54% 30.26 in 10.0 mi Calm Calm - N/A   Clear
9:25 PM 53.6 °F - 37.4 °F 54% 30.27 in 10.0 mi Calm Calm - N/A   Clear
9:45 PM 51.8 °F - 39.2 °F 62% 30.28 in 10.0 mi Calm Calm - N/A   Clear
10:05 PM 53.6 °F - 41.0 °F 62% 30.28 in 10.0 mi Calm Calm - N/A   Clear
10:25 PM 51.8 °F - 41.0 °F 67% 30.29 in 10.0 mi Calm Calm - N/A   Clear
10:45 PM 53.6 °F - 41.0 °F 62% 30.29 in 10.0 mi Calm Calm - N/A   Clear
11:05 PM 53.6 °F - 41.0 °F 62% 30.29 in 10.0 mi South 4.6 mph - N/A   Clear
11:26 PM 53.6 °F - 42.8 °F 67% 30.30 in 10.0 mi SSW 4.6 mph - N/A   Clear
11:46 PM 53.6 °F - 44.6 °F 72% 30.30 in 10.0 mi Calm Calm - N/A   Clear